星链-35385(STARLINK-35385)

导读 | 豆包AI

STARLINK-35385是美国SpaceX星链互联网卫星星座的一员,于2025年10月7日发射升空。星链计划旨在构建全球卫星互联网,该卫星加入星座后进一步扩大星座覆盖规模,提升卫星网络在全球不同区域的服务能力,推动卫星互联网通信普及应用,助力全球偏远区域的网络接入。

基本信息
目录编号:
65906
目录名称:
STARLINK-35385
国际标识:
2025-224AA
轨道中心:
EARTH
卫星名称:
星链-35385
卫星全名:
星链-35385(STARLINK-35385)
卫星状态:
在轨 (已飞行204 天)
发射日期:
2025-10-07 UTC
国别 :
美国 (US)
星等 :
--
轨道信息
数据来源 国际轨道数据
星历时间: 2026-04-29T06:00:02+0800
9小时前
查看轨道信息
半长轴: 6840.984km
偏心率: 0.0001463
轨道倾角: 53.159°
近地点辐角 73.448°
升交点赤经 137.826°
平近点角 57.849°
近地点: 461.846km
远地点: 463.848km
周期: 93.851分钟
每日圈数: 15.343518
详细信息
固有亮度:
5
最大亮度:
2.5
卫星平台:
Starlink V1.0
覆盖范围:
全球
运营商:
太空探索技术公司
运营商所在国:
美国
制造商(研发单位):
太空探索技术公司
制造商所在国:
美国
使用方式:
暂无
卫星简介
Starlink 计划是 SpaceX 推出的全球卫星互联网项目,通过发射低轨道卫星,为全球尤其是偏远地区提供高速、低延迟的互联网服务。自 2019 年起,Starlink 已部署数千颗卫星,旨在缩小全球数字鸿沟,推动互联网普及。该项目还为军事、航空等行业提供通信支持,带来广泛经济效益。
2D轨道图
3D轨道图
轨道高度分析图
轨道倾角分析图
轨道综合分析图
查看轨道综合分析图